Location: Wien
(48.2082°N, 16.3738°E)
Time: 20:14:05
(UTC+02:00)

JY1SAT - Pass Details

Date: 22 May 2025
Orbit: 497 x 509 km, 97.5° (Epoch: 12 June)

Event Time Altitude Azimuth Distance (km) Brightness Sun altitude
Exits shadow 21:46:48 10° 169° (S) 1,761 ? -9.8°
Reaches altitude 10° 21:46:53 10° 169° (S) 1,729 ? -9.8°
Maximum altitude 21:50:37 81° 256° (WSW) 524 ? -10.3°
Drops below altitude 10° 21:54:22 10° 345° (NNW) 1,741 ? -10.7°
Sets 21:56:29 0° 347° (NNW) 2,630 ? -10.9°
